RH
22 23 25 28 30 33 35 35 35 36 37 38 39 39 39 39 40 41 42 43 43 42
24 26 27 28 29 31 34 35 36 36 36 35 34 34 36 39 40 40 38 37 37 36
27 29 30 30 29 28 28 27 27 28 30 31 32 35 37 36 33 31 30 29 30 31
25 25 24 25 26 28 30 30 30 33 35 34 35 32 29 26 24 23 23 24 25 25
22 25 28 30 32 32 33 33 35 36 35 37 35 30 25 22 22 21 20 19 18 19
29 32 34 35 35 35 35 36 37 38 37 33 28 25 25 26 24 22 21 20 18 15
34 36 36 36 37 38 39 41 40 36 31 29 28 28 27 26 26 25 22 19 16 15
39 39 40 42 44 45 42 38 34 30 29 28 27 27 31 30 28 26 23 20 17 16
49 53 56 55 51 44 40 33 30 28 27 28 35 33 33 34 30 26 24 23 25 26
56 57 55 53 48 40 35 33 34 37 39 35 34 35 32 32 30 28 28 29 29 29
57 57 57 54 50 46 40 38 37 35 35 35 34 30 30 30 30 32 31 30 30 31
63 63 60 51 43 37 35 37 42 41 36 32 27 26 26 28 30 32 32 33 36 39
66 63 54 47 43 43 50 46 43 39 35 32 26 23 22 26 34 34 35 36 38 40
71 61 52 49 56 55 46 39 34 30 28 28 26 23 22 25 33 38 40 42 42 43